| time (UTC) | temp C | wind direction | speed KPH | gust KPH | rain 1hr cm | rain 24hr cm | rain mn cm | humidity % | barometer mb |
| 20260507020813 | 5 | 39 | 0.0 | 0.0 | 0.00 | 0.03 | 0.00 | 99 | 1008.2 |
| 20260507015313 | 5 | 157 | 0.0 | 0.0 | 0.00 | 0.03 | 0.00 | 99 | 1008.2 |
| 20260507013813 | 5 | 167 | 0.0 | 0.0 | 0.00 | 0.03 | 0.00 | 99 | 1008.2 |
| 20260507012313 | 5 | 167 | 0.0 | 0.0 | 0.00 | 0.03 | 0.00 | 99 | 1008.6 |
| 20260507010813 | 5 | 167 | 0.0 | 0.0 | 0.00 | 0.03 | 0.00 | 99 | 1008.2 |
| 20260507005313 | 5 | 170 | 3.2 | 8.0 | 0.00 | 0.03 | 0.00 | 99 | 1007.9 |
| 20260507003813 | 5 | 158 | 0.0 | 0.0 | 0.00 | 0.03 | 0.00 | 99 | 1007.9 |
| 20260507002313 | 5 | 181 | 0.0 | 0.0 | 0.00 | 0.03 | 0.00 | 99 | 1007.6 |
| 20260507000813 | 5 | 147 | 0.0 | 0.0 | 0.00 | 0.03 | 0.00 | 99 | 1007.6 |
| 20260506235313 | 5 | 166 | 0.0 | 4.8 | 0.00 | 0.03 | 0.00 | 99 | 1007.6 |
| 20260506233812 | 5 | 166 | 0.0 | 4.8 | 0.00 | 0.03 | 0.00 | 99 | 1007.6 |
| 20260506232313 | 5 | 166 | 0.0 | 4.8 | 0.00 | 0.03 | 0.00 | 99 | 1007.6 |
| 20260506230813 | 5 | 166 | 0.0 | 4.8 | 0.00 | 0.03 | 0.00 | 99 | 1007.6 |
| 20260506225313 | 5 | 160 | 0.0 | 0.0 | 0.00 | 0.03 | 0.00 | 99 | 1007.9 |
| 20260506223813 | 5 | 159 | 1.6 | 4.8 | 0.00 | 0.03 | 0.00 | 99 | 1007.9 |
| 20260506222313 | 5 | 162 | 0.0 | 0.0 | 0.00 | 0.00 | 0.00 | 99 | 1007.9 |
| 20260506220813 | 5 | 157 | 0.0 | 0.0 | 0.00 | 0.00 | 0.00 | 99 | 1007.6 |
| 20260506215313 | 5 | 174 | 0.0 | 0.0 | 0.00 | 0.86 | 0.00 | 99 | 1007.6 |
| 20260506213812 | 5 | 153 | 0.0 | 0.0 | 0.00 | 0.86 | 0.00 | 99 | 1007.6 |
| 20260506212313 | 5 | 152 | 0.0 | 4.8 | 0.00 | 0.86 | 0.00 | 99 | 1007.6 |
| 20260506210813 | 5 | 160 | 0.0 | 4.8 | 0.00 | 0.86 | 0.00 | 99 | 1007.6 |
| 20260506205312 | 5 | 168 | 0.0 | 4.8 | 0.00 | 0.86 | 0.00 | 99 | 1007.2 |
| 20260506203812 | 5 | 152 | 0.0 | 0.0 | 0.00 | 0.86 | 0.00 | 99 | 1007.2 |
| 20260506202313 | 5 | 90 | 4.8 | 8.0 | 0.00 | 0.86 | 0.00 | 99 | 1006.9 |
| 20260506175312 | 5 | 160 | 1.6 | 4.8 | 0.00 | 0.71 | 0.00 | 99 | 1006.5 |
| 20260506173812 | 5 | 160 | 1.6 | 4.8 | 0.00 | 0.71 | 0.00 | 99 | 1006.5 |
| 20260506172312 | 5 | 160 | 1.6 | 4.8 | 0.00 | 0.71 | 0.00 | 99 | 1006.5 |
| 20260506170812 | 5 | 160 | 1.6 | 4.8 | 0.00 | 0.71 | 0.00 | 99 | 1006.5 |
| 20260506165312 | 5 | 216 | 3.2 | 4.8 | 0.18 | 0.71 | 0.00 | 99 | 1006.2 |
| 20260506163812 | 5 | 133 | 8.0 | 11.3 | 0.00 | 0.69 | 0.00 | 99 | 1006.2 |
| 20260506162312 | 5 | 162 | 1.6 | 4.8 | 0.00 | 0.66 | 0.00 | 99 | 1006.2 |
| 20260506160812 | 5 | 83 | 6.4 | 11.3 | 0.00 | 0.66 | 0.00 | 99 | 1006.2 |
| 20260506155312 | 5 | 160 | 11.3 | 11.3 | 0.00 | 0.66 | 0.00 | 99 | 1006.2 |
| 20260506153812 | 5 | 151 | 4.8 | 8.0 | 0.18 | 0.66 | 0.00 | 99 | 1006.5 |
| 20260506152312 | 5 | 215 | 0.0 | 4.8 | 0.00 | 0.64 | 0.00 | 99 | 1006.2 |
| 20260506150812 | 5 | 62 | 6.4 | 8.0 | 0.00 | 0.64 | 0.00 | 99 | 1006.2 |
| 20260506145312 | 5 | 2 | 1.6 | 4.8 | 0.00 | 0.61 | 0.00 | 99 | 1006.2 |
| 20260506143811 | 5 | 202 | 0.0 | 4.8 | 0.00 | 0.61 | 0.00 | 99 | 1006.2 |
| 20260506142312 | 5 | 70 | 8.0 | 11.3 | 0.00 | 0.61 | 0.00 | 99 | 1006.5 |
| 20260506140814 | 5 | 151 | 12.9 | 16.1 | 0.00 | 0.56 | 0.00 | 99 | 1006.5 |
| 20260506135313 | 5 | 136 | 1.6 | 4.8 | 0.00 | 0.56 | 0.00 | 99 | 1006.5 |
| 20260506133813 | 5 | 345 | 1.6 | 4.8 | 0.18 | 0.56 | 0.00 | 99 | 1006.5 |
| 20260506132313 | 5 | 174 | 6.4 | 8.0 | 0.00 | 0.53 | 0.00 | 99 | 1006.5 |
| 20260506120813 | 5 | 156 | 1.6 | 4.8 | 0.00 | 0.53 | 0.00 | 99 | 1006.5 |
| 20260506115313 | 5 | 156 | 1.6 | 4.8 | 0.00 | 0.53 | 0.00 | 99 | 1006.5 |
| 20260506113813 | 5 | 156 | 1.6 | 4.8 | 0.00 | 0.53 | 0.00 | 99 | 1006.5 |
| 20260506112313 | 5 | 156 | 1.6 | 4.8 | 0.00 | 0.53 | 0.00 | 99 | 1006.5 |
| 20260506110813 | 5 | 153 | 1.6 | 4.8 | 0.00 | 0.53 | 0.00 | 99 | 1006.2 |
| 20260506105313 | 5 | 147 | 4.8 | 8.0 | 0.00 | 0.53 | 0.00 | 99 | 1006.5 |
| 20260506103813 | 6 | 136 | 1.6 | 4.8 | 0.00 | 0.53 | 0.00 | 99 | 1006.5 |
| 20260506102313 | 6 | 125 | 0.0 | 4.8 | 0.18 | 0.53 | 0.00 | 99 | 1006.9 |
| 20260506100815 | 6 | 37 | 1.6 | 4.8 | 0.18 | 0.48 | 0.00 | 99 | 1006.5 |
| 20260506095325 | 6 | 152 | 0.0 | 0.0 | 0.00 | 0.38 | 0.00 | 99 | 1006.9 |
| 20260506093814 | 6 | 145 | 3.2 | 4.8 | 0.00 | 0.38 | 0.00 | 99 | 1006.5 |
| 20260506092321 | 6 | 168 | 0.0 | 0.0 | 0.00 | 0.36 | 0.00 | 99 | 1006.5 |
| 20260506090818 | 6 | 167 | 0.0 | 0.0 | 0.00 | 0.36 | 0.00 | 99 | 1006.5 |
| 20260506085327 | 6 | 164 | 4.8 | 8.0 | 0.00 | 0.36 | 0.00 | 99 | 1006.2 |
| 20260506084432 | 6 | 137 | 0.0 | 4.8 | 0.00 | 0.36 | 0.00 | 99 | 1006.2 |
| 20260506082840 | 6 | 24 | 4.8 | 8.0 | 0.00 | 0.36 | 0.00 | 99 | 1006.5 |
| 20260506081036 | 7 | 101 | 8.0 | 11.3 | 0.18 | 0.33 | 0.00 | 99 | 1006.5 |
| 20260506072313 | 7 | 160 | 0.0 | 0.0 | 0.18 | 0.10 | 0.00 | 99 | 1007.6 |
| 20260506070813 | 7 | 160 | 0.0 | 0.0 | 0.18 | 0.10 | 0.00 | 99 | 1007.6 |
| 20260506062313 | 7 | 134 | 1.6 | 4.8 | 0.00 | 0.03 | 0.00 | 99 | 1007.6 |
| 20260506060813 | 7 | 156 | 1.6 | 4.8 | 0.18 | 0.03 | 0.00 | 99 | 1007.2 |
| 20260506050812 | 6 | 146 | 4.8 | 8.0 | 0.00 | 0.00 | 0.00 | 99 | 1007.6 |
| 20260506043812 | 6 | 117 | 0.0 | 4.8 | 0.00 | 0.00 | 0.00 | 99 | 1007.6 |
| 20260506042315 | 6 | 152 | 0.0 | 0.0 | 0.00 | 0.00 | 0.00 | 99 | 1007.6 |
| 20260506040812 | 6 | 150 | 0.0 | 0.0 | 0.00 | 0.00 | 0.00 | 99 | 1007.9 |
| 20260506035318 | 6 | 150 | 0.0 | 0.0 | 0.00 | 0.00 | 0.00 | 99 | 1007.9 |
| 20260506033813 | 6 | 161 | 0.0 | 0.0 | 0.00 | 0.00 | 0.00 | 99 | 1007.9 |
| 20260506032312 | 6 | 155 | 0.0 | 0.0 | 0.00 | 0.00 | 0.00 | 99 | 1007.9 |
| 20260506030812 | 6 | 161 | 0.0 | 0.0 | 0.00 | 0.00 | 0.00 | 99 | 1007.9 |
| 20260506023811 | 6 | 161 | 0.0 | 0.0 | 0.00 | 0.00 | 0.00 | 99 | 1008.2 |
| 20260506022321 | 6 | 161 | 0.0 | 0.0 | 0.00 | 0.00 | 0.00 | 99 | 1008.2 |